K5GTX Weather Reports


time (UTC)temp
F
wind
direction
speed
knots
gust
knots
rain 1hr
in
rain 24hr
in
rain mn
in
humidity
%
barometer
mb
20260503013816 68 234 0.0 0.0 0.00 0.00 0.00 99 1025.4
20260503013314 68 234 0.0 0.0 0.00 0.00 0.00 99 1025.2
20260503012811 70 234 0.0 0.0 0.00 0.00 0.00 99 1025.4
20260503012308 71 234 0.0 0.0 0.00 0.00 0.00 99 1025.1
20260503011805 71 234 0.0 1.7 0.00 0.00 0.00 99 1025.1
20260503011302 72 270 0.0 0.0 0.00 0.00 0.00 99 1025.1
20260503010758 72 270 0.0 0.9 0.00 0.00 0.00 99 1025.2
20260503010255 73 255 0.0 1.7 0.00 0.00 0.00 99 1024.8
20260503005752 73 270 0.0 1.7 0.00 0.00 0.00 99 1025.0
20260503005250 74 270 0.0 2.6 0.00 0.00 0.00 99 1025.0
20260503004745 74 279 0.0 1.7 0.00 0.00 0.00 99 1024.9
20260503004244 75 311 2.6 3.5 0.00 0.00 0.00 99 1024.7
20260503003740 75 286 0.0 0.9 0.00 0.00 0.00 99 1024.9
20260503003238 76 270 0.0 2.6 0.00 0.00 0.00 99 1024.8
20260503002734 76 297 0.9 2.6 0.00 0.00 0.00 99 1024.8
20260503002231 76 263 2.6 3.5 0.00 0.00 0.00 99 1024.8
20260503001727 76 254 0.9 4.3 0.00 0.00 0.00 99 1024.8
20260503001224 76 291 2.6 5.2 0.00 0.00 0.00 99 1024.9
20260503000722 77 332 1.7 3.5 0.00 0.00 0.00 99 1024.9
20260503000219 77 290 1.7 3.5 0.00 0.00 0.00 99 1025.0
20260502235716 77 217 1.7 4.3 0.00 0.00 0.00 99 1024.8
20260502235214 78 351 2.6 3.5 0.00 0.00 0.00 99 1024.8
20260502234710 79 261 0.9 0.9 0.00 0.00 0.00 99 1024.5
20260502234207 77 281 2.6 6.1 0.00 0.00 0.00 99 1024.7
20260502233703 77 297 1.7 6.1 0.00 0.00 0.00 99 1024.7
20260502233200 78 294 0.0 2.6 0.00 0.00 0.00 99 1024.8
20260502232655 78 265 1.7 2.6 0.00 0.00 0.00 99 1025.1
20260502232153 77 259 1.7 4.3 0.00 0.00 0.00 99 1024.9
20260502231649 77 258 2.6 5.2 0.00 0.00 0.00 99 1025.0
20260502231147 76 260 5.2 5.2 0.00 0.00 0.00 99 1025.0
20260502230646 75 312 1.7 5.2 0.00 0.00 0.00 99 1025.1
20260502230144 77 288 4.3 7.0 0.00 0.00 0.00 99 1025.5
20260502225639 78 290 1.7 3.5 0.00 0.00 0.00 99 1025.0
20260502225137 77 236 2.6 4.3 0.00 0.00 0.00 99 1025.0
20260502224632 78 297 0.9 2.6 0.00 0.00 0.00 99 1025.1
20260502224129 78 261 0.0 2.6 0.00 0.00 0.00 99 1025.2
20260502223627 77 354 2.6 2.6 0.00 0.00 0.00 99 1025.2
20260502223125 77 74 1.7 4.3 0.00 0.00 0.00 99 1025.2
20260502222622 76 345 0.9 2.6 0.00 0.00 0.00 99 1025.4
20260502222119 75 78 0.0 4.3 0.00 0.00 0.00 99 1025.2
20260502221614 75 326 2.6 7.0 0.00 0.00 0.00 99 1025.5
20260502221112 76 12 2.6 5.2 0.00 0.00 0.00 99 1025.4
20260502220608 76 21 2.6 4.3 0.00 0.00 0.00 99 1025.7
20260502220104 76 51 7.0 7.0 0.00 0.00 0.00 99 1025.5
20260502215602 76 64 4.3 8.7 0.00 0.00 0.00 99 1025.6
20260502215059 77 15 0.9 6.1 0.00 0.00 0.00 99 1025.9
20260502214555 79 254 0.0 2.6 0.00 0.00 0.00 99 1025.6
20260502214053 77 270 2.6 4.3 0.00 0.00 0.00 99 1025.7
20260502213550 76 62 3.5 8.7 0.00 0.00 0.00 99 1025.8
20260502213047 77 68 0.0 5.2 0.00 0.00 0.00 99 1026.0
20260502212546 76 315 1.7 5.2 0.00 0.00 0.00 99 1025.9
20260502212044 76 297 4.3 9.6 0.00 0.00 0.00 99 1026.0
20260502211539 76 344 4.3 5.2 0.00 0.00 0.00 99 1026.0
20260502211036 76 29 3.5 6.1 0.00 0.00 0.00 99 1026.0
20260502210533 76 293 3.5 7.0 0.00 0.00 0.00 99 1026.1
20260502210030 76 63 4.3 5.2 0.00 0.00 0.00 99 1026.3
20260502205527 76 291 0.9 3.5 0.00 0.00 0.00 99 1026.3
20260502205024 76 283 1.7 4.3 0.00 0.00 0.00 99 1026.4
20260502204521 76 0 0.0 4.3 0.00 0.00 0.00 99 1026.5
20260502204019 76 353 2.6 4.3 0.00 0.00 0.00 99 1026.4
20260502203515 76 349 1.7 4.3 0.00 0.00 0.00 99 1026.4
20260502203012 75 261 5.2 7.8 0.00 0.00 0.00 99 1026.5
20260502202508 75 301 2.6 6.1 0.00 0.00 0.00 99 1026.7
20260502202007 74 285 4.3 7.0 0.00 0.00 0.00 99 1026.7
20260502201502 74 340 0.9 6.1 0.00 0.00 0.00 99 1026.6
20260502200959 75 300 1.7 2.6 0.00 0.00 0.00 99 1026.7
20260502200455 75 79 1.7 7.0 0.00 0.00 0.00 99 1026.8
20260502195953 75 150 1.7 2.6 0.00 0.00 0.00 99 1027.1
20260502195450 74 293 1.7 4.3 0.00 0.00 0.00 99 1027.0
20260502194946 74 290 3.5 6.1 0.00 0.00 0.00 99 1027.3
20260502194443 74 56 3.5 6.1 0.00 0.00 0.00 99 1026.9
20260502193939 74 0 0.9 10.4 0.00 0.00 0.00 99 1027.2
20260502193437 74 259 4.3 5.2 0.00 0.00 0.00 99 1027.2
20260502192932 75 255 2.6 4.3 0.00 0.00 0.00 99 1027.2
20260502192429 73 120 0.0 5.2 0.00 0.00 0.00 99 1027.4
20260502191926 74 0 0.0 6.1 0.00 0.00 0.00 99 1027.4
20260502191424 74 319 4.3 6.1 0.00 0.00 0.00 99 1027.5
20260502190921 74 313 6.1 6.1 0.00 0.00 0.00 99 1027.5
20260502190418 74 98 0.9 3.5 0.00 0.00 0.00 99 1027.7
20260502185914 73 69 0.9 3.5 0.00 0.00 0.00 99 1027.5
20260502185409 73 292 4.3 4.3 0.00 0.00 0.00 99 1027.7
20260502184907 73 270 2.6 6.1 0.00 0.00 0.00 99 1027.8
20260502184402 73 35 2.6 5.2 0.00 0.00 0.00 99 1028.0
20260502183859 73 0 4.3 5.2 0.00 0.00 0.00 99 1027.7
20260502183355 73 26 7.0 7.0 0.00 0.00 0.00 99 1027.9
20260502182851 72 349 1.7 6.1 0.00 0.00 0.00 99 1027.8
20260502182347 74 337 4.3 8.7 0.00 0.00 0.00 99 1028.2
20260502181843 72 6 3.5 5.2 0.00 0.00 0.00 99 1028.2
20260502181342 72 226 3.5 6.1 0.00 0.00 0.00 99 1028.1
20260502180839 72 353 1.7 5.2 0.00 0.00 0.00 99 1028.2
20260502180336 71 259 3.5 4.3 0.00 0.00 0.00 99 1028.2
20260502170255 70 140 1.7 4.3 0.00 0.00 0.00 99 1028.9
20260502164243 71 95 0.0 3.5 0.00 0.00 0.00 99 1028.9
20260502163738 71 86 2.6 3.5 0.00 0.00 0.00 99 1029.0
20260502163235 70 356 1.7 3.5 0.00 0.00 0.00 99 1028.9
20260502162732 71 96 1.7 1.7 0.00 0.00 0.00 99 1029.1
20260502162229 69 55 1.7 3.5 0.00 0.00 0.00 99 1028.8
20260502161726 69 266 4.3 5.2 0.00 0.00 0.00 99 1029.0
20260502161222 69 289 0.9 3.5 0.00 0.00 0.00 99 1029.0
20260502160721 68 39 4.3 4.3 0.00 0.00 0.00 99 1029.0
20260502160219 69 30 6.1 6.1 0.00 0.00 0.00 99 1029.0
20260502152143 67 60 0.9 5.2 0.00 0.00 0.00 99 1028.8
20260502151641 68 83 0.9 2.6 0.00 0.00 0.00 99 1028.8
20260502151137 68 90 0.0 1.7 0.00 0.00 0.00 99 1028.6
20260502150635 65 305 1.7 3.5 0.00 0.00 0.00 99 1028.5
20260502150131 65 65 1.7 5.2 0.00 0.00 0.00 99 1028.5
20260502130520 55 18 0.0 1.7 0.00 0.00 0.00 99 1027.8
20260502123503 52 334 0.0 0.0 0.00 0.00 0.00 99 1027.3
20260502122959 51 334 0.0 0.0 0.00 0.00 0.00 99 1027.2
20260502122455 51 331 1.7 1.7 0.00 0.00 0.00 99 1027.0
20260502121954 50 337 0.0 0.9 0.00 0.00 0.00 99 1027.0
20260502121451 50 0 0.0 0.9 0.00 0.00 0.00 99 1027.0
20260502120948 50 20 0.0 0.9 0.00 0.00 0.00 99 1026.9
20260502120444 49 35 0.9 1.7 0.00 0.00 0.00 99 1026.8
20260502115439 49 74 0.0 0.0 0.00 0.00 0.00 99 1026.5
20260502114935 50 74 0.0 0.0 0.00 0.00 0.00 99 1026.4
20260502114432 50 74 0.0 0.0 0.00 0.00 0.00 99 1026.3
20260502113929 50 74 0.0 0.0 0.00 0.00 0.00 99 1026.1
20260502113426 50 74 0.0 0.0 0.00 0.00 0.00 99 1026.1
20260502112925 51 74 0.0 0.0 0.00 0.00 0.00 99 1026.0
20260502112422 51 74 0.0 0.0 0.00 0.00 0.00 99 1026.1
20260502111920 52 0 0.0 0.9 0.00 0.00 0.00 99 1026.0
20260502111416 52 26 0.0 1.7 0.00 0.00 0.00 99 1026.2
20260502110914 52 12 0.9 1.7 0.00 0.00 0.00 99 1026.2
20260502110412 52 300 0.0 1.7 0.00 0.00 0.00 99 1026.1
20260502105909 53 325 0.9 2.6 0.00 0.00 0.00 99 1025.9
20260502105406 53 330 0.0 2.6 0.00 0.00 0.00 99 1025.9
20260502104904 52 330 1.7 3.5 0.00 0.00 0.00 99 1026.0
20260502104401 52 250 1.7 2.6 0.00 0.00 0.00 99 1025.9
20260502103858 51 311 0.0 1.7 0.00 0.00 0.00 99 1025.7
20260502103355 51 8 0.0 0.0 0.00 0.00 0.00 99 1025.4
20260502102852 51 337 0.0 0.0 0.00 0.00 0.00 99 1025.5
20260502102349 51 337 0.0 0.0 0.00 0.00 0.00 99 1025.4
20260502101846 52 337 0.0 0.0 0.00 0.00 0.00 99 1025.6
20260502101345 53 0 0.0 0.9 0.00 0.00 0.00 99 1025.0
20260502100843 53 0 0.0 0.9 0.00 0.00 0.00 99 1025.5
20260502100342 53 0 0.0 1.7 0.00 0.00 0.00 99 1025.6
20260502091315 54 340 0.0 2.6 0.00 0.00 0.00 99 1025.7
20260502090813 54 292 1.7 2.6 0.00 0.00 0.00 99 1025.4
20260502090309 54 331 0.0 2.6 0.00 0.00 0.00 99 1025.5
20260502071204 55 28 0.0 1.7 0.00 0.00 0.00 99 1025.4
20260502070703 55 0 0.0 0.0 0.00 0.00 0.00 99 1025.5
20260502070200 55 279 0.0 0.0 0.00 0.00 0.00 99 1025.4
20260502065659 56 345 0.0 2.6 0.00 0.00 0.00 99 1025.5
20260502065155 56 294 0.9 3.5 0.00 0.00 0.00 99 1025.6
20260502064654 56 275 1.7 3.5 0.00 0.00 0.00 99 1025.7
20260502064151 56 282 0.0 2.6 0.00 0.00 0.00 99 1025.6
20260502063649 56 315 1.7 2.6 0.00 0.00 0.00 99 1025.7
20260502063147 55 270 0.0 2.6 0.00 0.00 0.00 99 1025.6
20260502062643 55 291 0.9 1.7 0.00 0.00 0.00 99 1025.5
20260502062141 54 289 0.0 1.7 0.00 0.00 0.00 99 1025.4
20260502061639 54 270 0.0 0.9 0.00 0.00 0.00 99 1025.6
20260502061137 54 340 0.0 0.0 0.00 0.00 0.00 99 1025.7
20260502060636 54 352 0.0 0.0 0.00 0.00 0.00 99 1025.4
20260502060133 54 0 0.0 0.0 0.00 0.00 0.00 99 1025.4
20260502055631 54 0 0.0 0.0 0.00 0.00 0.00 99 1025.5
20260502055129 54 352 0.0 0.0 0.00 0.00 0.00 99 1025.7
20260502054628 53 303 0.0 0.0 0.00 0.00 0.00 99 1025.8
20260502054125 53 303 0.0 0.0 0.00 0.00 0.00 99 1025.7
20260502053622 53 352 0.0 0.9 0.00 0.00 0.00 99 1025.6
20260502053119 54 186 0.0 0.0 0.00 0.00 0.00 99 1025.6
20260502052617 54 186 0.0 0.0 0.00 0.00 0.00 99 1025.6
20260502052115 55 186 0.0 0.0 0.00 0.00 0.00 99 1025.4
20260502051613 55 186 0.0 0.0 0.00 0.00 0.00 99 1025.8
20260502051111 55 186 0.0 0.9 0.00 0.00 0.00 99 1025.6
20260502050607 55 286 0.0 0.9 0.00 0.00 0.00 99 1025.7
20260502050104 55 303 0.0 1.7 0.00 0.00 0.00 99 1025.6
20260502045600 55 106 0.0 0.0 0.00 0.00 0.00 99 1025.6
20260502045057 56 261 0.0 0.0 0.00 0.00 0.00 99 1025.6
20260502044554 55 261 0.0 0.0 0.00 0.00 0.00 99 1025.7
20260502044051 55 261 0.0 0.0 0.00 0.00 0.00 99 1025.6
20260502043548 56 261 0.0 0.0 0.00 0.00 0.00 99 1025.4
20260502043044 56 261 0.0 0.0 0.00 0.00 0.00 99 1025.5
20260502042539 56 90 0.0 0.0 0.00 0.00 0.00 99 1025.4
20260502042037 56 90 0.0 0.0 0.00 0.00 0.00 99 1025.5
20260502041535 55 90 0.0 0.0 0.00 0.00 0.00 99 1025.5
20260502041032 56 90 0.0 0.0 0.00 0.00 0.00 99 1025.4
20260502040528 56 90 0.0 0.0 0.00 0.00 0.00 99 1025.2
20260502040025 57 90 0.0 0.0 0.00 0.00 0.00 99 1025.1
20260502035521 57 82 0.0 0.0 0.00 0.00 0.00 99 1025.7
20260502035019 57 82 0.0 0.0 0.00 0.00 0.00 99 1025.5
20260502034516 57 270 0.0 0.0 0.00 0.00 0.00 99 1025.4
20260502034015 57 270 0.0 0.0 0.00 0.00 0.00 99 1025.6
20260502033513 57 270 0.0 0.0 0.00 0.00 0.00 99 1025.5
20260502033010 58 270 0.0 0.0 0.00 0.00 0.00 99 1025.5
20260502032505 58 270 0.0 0.0 0.00 0.00 0.00 99 1025.6
20260502032003 58 270 0.0 0.0 0.00 0.00 0.00 99 1025.4
20260502031500 58 270 0.0 0.0 0.00 0.00 0.00 99 1025.5
20260502030958 59 270 0.0 0.0 0.00 0.00 0.00 99 1025.2
20260502030456 58 286 0.9 0.9 0.00 0.00 0.00 99 1025.1
20260502025954 59 90 0.0 0.0 0.00 0.00 0.00 99 1024.9
20260502025451 59 90 0.0 0.0 0.00 0.00 0.00 99 1024.9
20260502024949 59 90 0.0 0.0 0.00 0.00 0.00 99 1025.1
20260502024447 59 195 0.0 0.9 0.00 0.00 0.00 99 1025.2
20260502023945 59 99 0.0 0.0 0.00 0.00 0.00 99 1025.0
20260502023442 60 99 0.0 0.0 0.00 0.00 0.00 99 1025.1
20260502022939 60 99 0.0 0.0 0.00 0.00 0.00 99 1024.9
20260502022435 60 99 0.0 0.0 0.00 0.00 0.00 99 1024.9
20260502021932 60 99 0.0 0.0 0.00 0.00 0.00 99 1024.8
20260502021430 60 99 0.0 0.0 0.00 0.00 0.00 99 1024.7
20260502020927 60 99 0.0 0.0 0.00 0.00 0.00 99 1024.6
20260502020425 60 99 0.0 0.0 0.00 0.00 0.00 99 1024.4
20260502015921 60 99 0.0 0.0 0.00 0.00 0.00 99 1024.2
20260502015419 60 99 0.0 0.0 0.00 0.00 0.00 99 1024.2
20260502014915 60 99 0.0 0.0 0.00 0.00 0.00 99 1024.2
20260502014413 60 99 0.0 0.0 0.00 0.00 0.00 99 1024.2